Location: Friaudour
(46.0460°N, 1.2873°E)
Time: 02:41:22
(UTC+00:00)

Abrixas rocket - Visible Passes

Search period start: 23 October 2020 00:00
Search period end: 02 November 2020 00:00
Orbit: 329 x 336 km, 48.4° (Epoch: 22 October)

Date Brightness Start Highest point End Pass type
(mag) Time Alt. Az. Time Alt. Az. Time Alt. Az.
23 Oct 2.3 04:42:00 51° N 04:42:00 51° N 04:44:44 10° ENE visible
24 Oct 2.3 05:00:45 36° NW 05:01:32 50° N 05:04:19 10° E visible
25 Oct 5.4 03:48:15 12° ENE 03:48:15 12° ENE 03:48:29 10° ENE visible
25 Oct 1.9 05:19:25 22° WNW 05:21:02 66° NNE 05:23:52 10° E visible
26 Oct 4.6 04:06:54 19° ENE 04:06:54 19° ENE 04:07:56 10° E visible
26 Oct 1.8 05:38:04 14° WNW 05:40:24 71° SSW 05:43:14 10° ESE visible
27 Oct 3.5 04:25:31 35° E 04:25:31 35° E 04:27:21 10° E visible
27 Oct 2.9 05:56:59 10° W 05:59:35 32° SSW 06:02:10 10° SE visible
28 Oct 2.1 04:44:07 64° SE 04:44:07 64° SE 04:46:37 10° ESE visible
29 Oct 2.6 05:02:44 35° SW 05:02:52 36° SSW 05:05:30 10° SE visible
30 Oct 3.7 05:21:21 16° SW 05:21:43 16° SW 05:23:37 10° S visible
